Beckley, WV

3:32 PM EDT on May 23, 2018 (GMT -0400)
Raleigh County Memorial

Weather History for KBKW - February, 2012

Change the Weather History Date:

Monday, February 6, 2012

  Actual Average Record
Temperature  
Mean Temperature 34 °F 33 °F  
Max Temperature 46 °F 41 °F 64 °F (2008)
Min Temperature 21 °F 24 °F -5 °F (1933)
Degree Days  
Heating Degree Days 31 32  
Month to date heating degree days 140 196  
Since 1 July heating degree days 2758 3340  
Cooling Degree Days 0 0  
Month to date cooling degree days 0 0  
Year to date cooling degree days 0 0  
Moisture  
Dew Point 27 °F    
Average Humidity 79    
Maximum Humidity 92    
Minimum Humidity 65    
Precipitation  
Precipitation 0.00 in 0.09 in 1.62 in (1908)
Month to date precipitation 0.69 0.57  
Year to date precipitation 4.04 3.38  
Snow  
Snow 0.00 in 0.60 in 9.50 in (1998)
Month to date snowfall 0.0 3.8  
Since 1 September snowfall 18.8 37.7  
Snow Depth 0.00 in    
Sea Level Pressure  
Sea Level Pressure 30.19 in    
Wind  
Wind Speed 5 mph (West)    
Max Wind Speed 16 mph    
Max Gust Speed 21 mph    
Visibility 8 miles    
Events Fog    
T = Trace of Precipitation, MM = Missing Value Source: NWS Daily Summary

Daily Weather History Graph

Daily Weather History Graph

Search for Another Location

Airport or City:

Astronomy

Feb. 06, 2012 Rise Set
Actual Time 7:24 AM EST 5:53 PM EST
Civil Twilight 6:57 AM EST 6:20 PM EST
Nautical Twilight 6:25 AM EST 6:51 PM EST
Astronomical Twilight 5:55 AM EST 7:22 PM EST
Moon 4:55 PM EST (2/6) 6:14 AM EST (2/6)
Length of Visible Light 11h 23m
Length of Day
10h 28m
Waxing Gibbous, 98% of the Moon is Illuminated
Feb 6
Waxing Gibbous
Feb 7
Full
Feb 14
Last Quarter
Feb 21
New
Feb 29
First Quarter

Hourly Weather History & Observations

Time (EST) Temp. Windchill Dew Point Humidity Pressure Visibility Wind Dir Wind Speed Gust Speed Precip Events Conditions
12:51 AM 26.1 °F - 23.0 °F 88% 30.26 in 10.0 mi Calm Calm - N/A   Clear
1:51 AM 23.0 °F 17.0 °F 19.9 °F 88% 30.27 in 9.0 mi South 4.6 mph - N/A   Clear
2:51 AM 24.1 °F - 19.9 °F 84% 30.26 in 7.0 mi Calm Calm - N/A   Clear
3:51 AM 23.0 °F - 19.9 °F 88% 30.25 in 7.0 mi Calm Calm - N/A   Clear
4:51 AM 25.0 °F - 21.9 °F 88% 30.23 in 10.0 mi Calm Calm - N/A   Clear
5:23 AM 21.2 °F - 19.4 °F 93% 30.15 in 1.5 mi Calm Calm - N/A   Partly Cloudy
5:25 AM 21.2 °F 16.4 °F 19.4 °F 93% 30.15 in 0.8 mi North 3.5 mph - N/A   Mist
5:34 AM 21.2 °F 16.4 °F 19.4 °F 93% 30.15 in 0.2 mi North 3.5 mph - N/A Fog Light Freezing Fog
5:51 AM 21.9 °F - 19.0 °F 89% 30.25 in 1.0 mi Calm Calm - N/A   Mist
5:55 AM 21.2 °F - 19.4 °F 93% 30.15 in 2.0 mi Calm Calm - N/A   Scattered Clouds
6:02 AM 21.2 °F - 17.6 °F 86% 30.15 in 9.0 mi Calm Calm - N/A   Partly Cloudy
6:51 AM 21.9 °F - 19.0 °F 89% 30.26 in 10.0 mi Calm Calm - N/A   Clear
7:51 AM 27.0 °F 21.6 °F 23.0 °F 85% 30.26 in 10.0 mi SE 4.6 mph - N/A   Clear
8:51 AM 30.9 °F 22.2 °F 27.0 °F 85% 30.26 in 10.0 mi SSE 10.4 mph - N/A   Clear
9:51 AM 35.1 °F 28.6 °F 30.0 °F 82% 30.25 in 10.0 mi SE 8.1 mph - N/A   Clear
10:51 AM 39.9 °F 36.7 °F 32.0 °F 73% 30.25 in 10.0 mi SE 4.6 mph - N/A   Clear
11:51 AM 44.1 °F 39.5 °F 35.1 °F 71% 30.22 in 10.0 mi West 8.1 mph - N/A   Scattered Clouds
12:51 PM 45.0 °F 41.2 °F 34.0 °F 65% 30.19 in 10.0 mi WSW 6.9 mph - N/A   Overcast
1:37 PM 44.6 °F 41.4 °F 33.8 °F 66% 30.11 in 10.0 mi WNW 5.8 mph - N/A   Overcast
1:51 PM 44.1 °F 40.8 °F 34.0 °F 68% 30.18 in 10.0 mi West 5.8 mph - N/A   Overcast
2:36 PM 44.6 °F 40.7 °F 33.8 °F 66% 30.09 in 10.0 mi West 6.9 mph - N/A   Overcast
2:51 PM 45.0 °F 40.1 °F 34.0 °F 65% 30.16 in 10.0 mi West 9.2 mph - N/A   Overcast
3:39 PM 44.6 °F 40.2 °F 33.8 °F 66% 30.08 in 10.0 mi WNW 8.1 mph - N/A   Overcast
3:51 PM 44.1 °F 40.8 °F 34.0 °F 68% 30.16 in 10.0 mi WNW 5.8 mph - N/A   Overcast
4:49 PM 39.2 °F 34.2 °F 33.8 °F 81% 30.10 in 10.0 mi WNW 6.9 mph - N/A   Overcast
4:51 PM 39.0 °F 33.4 °F 33.1 °F 79% 30.19 in 10.0 mi WNW 8.1 mph - N/A   Overcast
5:38 PM 39.2 °F 35.0 °F 33.8 °F 81% 30.11 in 10.0 mi WSW 5.8 mph - N/A   Overcast
5:51 PM 37.9 °F 33.5 °F 33.1 °F 83% 30.19 in 10.0 mi WSW 5.8 mph - N/A   Overcast
6:35 PM 37.4 °F 30.8 °F 30.2 °F 75% 30.11 in 10.0 mi WSW 9.2 mph - N/A   Overcast
6:51 PM 37.9 °F 29.2 °F 30.9 °F 76% 30.21 in 10.0 mi West 15.0 mph - N/A   Overcast
7:51 PM 37.0 °F 30.4 °F 30.0 °F 76% 30.21 in 10.0 mi West 9.2 mph - N/A   Overcast
8:51 PM 36.0 °F 30.3 °F 30.0 °F 79% 30.19 in 10.0 mi West 6.9 mph - N/A   Overcast
9:51 PM 35.1 °F 29.3 °F 28.9 °F 78% 30.20 in 10.0 mi WNW 6.9 mph - N/A   Overcast
10:16 PM 33.8 °F 27.0 °F 28.4 °F 81% 30.13 in 10.0 mi West 8.1 mph - N/A   Scattered Clouds
10:51 PM 32.0 °F 26.4 °F 27.0 °F 82% 30.20 in 10.0 mi WNW 5.8 mph - N/A   Clear
11:51 PM 30.2 °F 25.4 °F 26.6 °F 86% 30.14 in 10.0 mi WSW 4.6 mph - N/A   Clear